Probability
0 0 0 0 0 0 0 0 0 0 0 0 0 0 0 1 2 2 1 0 0 0 0 0 0 0 0 0 0 0 0 0 1 2 2 1 0 0 0 0 0 0 0
0 0 0 0 0 0 0 0 0 0 0 0 0 0 0 0 1 1 1 1 0 0 0 0 0 0 0 0 0 0 0 0 1 2 2 1 0 0 0 0 0 0 0
0 0 0 0 0 0 0 0 0 0 0 0 0 0 0 0 0 0 0 1 1 1 0 0 0 0 0 0 0 0 0 0 0 1 1 0 0 0 0 0 0 0 0
0 0 0 0 0 0 0 0 0 0 0 0 0 0 0 0 0 0 0 0 1 2 1 0 0 0 0 0 0 0 0 0 0 0 0 0 0 0 0 0 0 0 0
0 0 0 1 1 0 1 2 1 1 0 0 0 0 0 0 0 0 0 0 1 2 2 1 0 0 0 0 0 0 0 0 0 0 0 0 0 0 0 0 0 0 0
0 0 1 2 1 1 2 3 2 1 0 0 0 0 0 0 0 0 0 0 0 1 2 2 1 0 0 0 0 0 0 0 0 0 0 0 0 0 0 0 0 0 0
1 1 2 3 2 2 3 4 3 2 1 0 0 0 0 0 0 0 0 0 0 0 1 2 2 1 0 0 0 0 0 0 0 0 0 0 0 0 0 0 0 0 0
2 3 3 2 2 2 4 5 5 3 2 1 1 1 0 0 0 0 0 0 0 0 1 2 3 2 1 0 0 0 0 0 0 0 0 0 0 0 0 0 0 0 0
3 3 3 1 1 2 4 6 6 5 3 2 2 2 1 0 0 0 0 0 0 0 0 1 2 2 1 0 0 0 0 0 0 0 0 0 0 0 0 0 0 0 0
3 3 2 1 0 1 3 5 6 6 4 3 2 2 1 0 0 0 0 0 0 0 1 2 2 2 1 0 1 1 1 0 0 0 0 0 0 0 0 0 0 0 0
2 1 1 0 0 0 2 4 5 6 5 3 2 1 1 0 0 0 0 0 0 1 2 3 2 1 1 0 1 1 1 0 0 0 0 0 0 0 0 0 0 0 0
1 0 0 0 0 0 2 3 4 5 4 2 2 1 0 0 0 0 0 0 0 1 2 3 2 1 0 0 0 0 0 0 0 0 0 0 0 0 0 0 0 0 0
0 0 0 0 0 0 1 3 3 3 2 1 1 1 0 0 0 0 0 0 0 1 2 2 2 1 0 0 0 0 0 0 0 0 0 0 0 0 0 0 0 0 0
0 0 0 0 0 0 1 2 2 1 0 0 0 0 0 0 0 0 0 0 0 0 1 1 1 0 0 0 0 0 0 0 0 0 0 0 0 0 0 0 0 0 0
0 0 0 0 0 0 0 1 1 0 0 0 0 0 0 0 0 0 0 0 0 0 0 0 0 0 0 0 0 0 0 0 0 0 0 0 0 0 0 0 0 0 0
0 0 0 0 0 0 0 0 0 0 0 0 0 0 0 0 0 0 0 0 0 0 0 0 0 0 0 0 0 0 0 0 0 0 0 0 0 0 0 0 0 0 0
0 0 0 0 0 0 0 0 0 0 0 0 0 0 0 0 0 0 0 0 0 0 0 0 0 0 0 0 1 0 0 0 0 0 0 0 0 0 0 0 0 0 0
0 0 0 0 0 0 0 0 0 0 0 0 0 0 0 0 0 0 0 0 0 0 0 0 0 0 0 0 0 0 0 0 0 0 0 0 0 0 0 0 0 0 0
0 0 0 0 1 1 0 0 0 0 0 0 0 0 0 0 0 0 0 0 0 0 0 0 0 0 0 0 0 0 0 0 0 0 0 0 0 0 0 0 0 0 0
0 0 0 0 1 1 0 0 0 0 0 0 0 0 0 0 0 0 0 0 0 0 0 0 0 0 0 0 0 0 0 0 0 0 0 0 0 0 0 0 0 0 0
0 0 0 0 1 1 0 0 0 0 0 0 0 0 0 0 0 0 0 0 1 0 0 0 0 0 0 0 0 0 0 0 0 0 0 0 0 0 0 0 0 0 0
0 0 0 0 0 0 0 0 0 0 0 0 0 0 0 0 0 0 0 0 0 0 0 0 0 0 0 0 0 0 0 0 0 0 0 0 0 0 0 0 0 0 0
0 0 0 0 0 0 0 0 0 0 0 0 0 0 0 0 0 0 0 0 0 0 0 0 0 0 0 0 0 0 0 0 0 0 0 0 0 0 0 0 0 0 0
0 0 0 0 0 0 0 0 0 0 0 0 0 0 0 0 1 0 0 0 0 1 0 0 0 0 0 0 0 0 0 0 0 0 0 0 0 0 0 0 0 0 0
0 0 0 0 0 0 0 0 0 0 0 0 0 0 0 0 0 0 0 0 0 0 0 0 0 0 0 0 0 0 0 0 0 0 0 0 0 0 0 0 0 0 0
0 0 0 0 0 0 0 0 0 0 0 0 0 0 0 0 0 0 0 0 0 0 0 0 0 0 0 0 0 0 0 0 0 0 0 0 0 0 0 0 0 0 0
Wind_Speed
4 4 4 4 3 3 3 3 2 3 3 3 4 4 4 4 4 4 4 4 4 3 3 3 3 3 2 2 2 2 2 2 2 1 1 1 2 2 2 2 1 2 2
4 4 4 3 4 4 3 3 3 3 3 3 3 4 4 4 4 4 4 4 4 4 3 3 3 2 3 3 2 2 2 2 2 2 2 2 2 1 1 2 2 1 1
5 5 5 4 4 4 4 3 3 3 3 4 4 4 4 4 4 5 5 4 4 4 4 3 3 3 3 3 3 3 2 2 2 3 2 1 2 2 2 2 2 1 1
5 6 5 5 5 5 4 4 4 3 4 4 4 4 4 4 5 5 4 4 4 4 4 4 3 3 3 3 3 3 2 2 2 3 2 3 2 3 2 2 2 1 1
6 6 5 5 5 4 4 4 4 4 4 4 4 4 4 4 3 4 4 5 5 4 4 4 3 1 1 2 2 3 3 3 3 3 3 3 3 3 3 2 2 2 2
6 6 5 5 5 5 4 4 4 4 4 3 4 4 4 3 1 3 5 5 5 5 4 4 4 4 4 4 3 4 4 4 4 4 3 4 4 3 2 3 3 3 2
6 6 5 5 5 5 4 4 4 4 4 4 4 4 4 3 3 4 5 5 5 4 5 4 3 3 4 5 5 6 6 5 5 5 4 4 4 3 3 4 3 3 2
6 6 5 5 5 5 5 5 5 4 4 4 4 4 4 3 4 4 5 6 5 5 5 5 5 5 4 4 5 5 5 5 5 6 5 4 3 3 4 3 3 3 2
6 6 6 6 6 5 6 6 5 5 5 4 4 5 5 4 5 5 6 5 5 5 5 5 5 5 4 4 5 5 5 4 4 4 3 2 1 2 3 3 4 4 3
6 6 6 6 6 6 6 6 5 5 5 5 5 5 5 5 5 6 7 5 5 5 4 5 4 4 4 6 6 5 5 4 4 5 5 5 5 6 7 6 5 5 4
5 5 6 6 6 6 6 5 5 5 5 5 5 5 5 5 5 6 7 6 5 5 4 4 4 5 6 6 6 5 3 3 4 4 4 4 4 4 5 6 5 5 5
5 6 6 6 5 5 5 5 5 5 5 5 5 5 4 4 4 6 7 7 6 6 5 4 3 6 7 7 5 2 2 3 4 4 4 4 4 4 4 5 6 6 6
5 6 6 6 5 5 5 5 5 5 5 5 4 4 4 3 4 6 8 8 7 6 4 3 3 5 6 6 6 5 5 5 4 4 4 4 4 4 4 4 5 5 6
5 6 6 6 6 5 4 5 5 5 5 5 5 5 4 4 3 3 4 5 6 5 4 3 5 6 5 4 5 6 5 5 4 5 4 4 3 4 4 4 4 4 4
5 5 5 5 5 5 5 4 6 5 5 6 5 5 5 5 4 3 4 4 4 4 3 3 3 4 4 5 5 5 5 5 5 5 5 4 4 4 4 4 4 4 5
4 4 4 4 4 4 4 4 3 5 5 6 5 6 5 4 3 5 6 6 6 5 5 5 5 5 6 6 5 5 5 5 5 5 5 5 5 5 5 5 5 5 6
5 4 4 4 4 4 4 4 4 4 5 6 7 7 6 5 5 6 6 6 7 8 6 6 6 6 6 6 6 6 6 6 5 6 6 6 5 6 5 6 6 6 6
5 4 4 4 4 4 4 5 5 5 5 5 6 7 7 7 7 6 6 5 6 7 7 7 7 7 6 6 6 6 6 6 6 6 6 6 6 6 6 6 6 7 6
4 3 4 4 4 4 4 5 5 6 5 5 4 4 6 6 7 7 8 6 6 7 7 7 7 7 6 6 6 6 6 6 7 6 6 6 6 6 6 6 6 7 7
4 4 4 3 4 4 4 4 5 5 5 5 5 4 4 4 5 5 6 6 6 7 7 7 7 7 7 6 6 6 6 7 7 7 6 6 6 6 7 8 7 6 7
3 3 4 4 4 4 4 4 5 5 5 5 5 4 5 5 6 6 6 7 7 7 6 6 6 7 7 6 6 7 8 7 7 6 6 6 6 6 6 7 7 7 6
3 3 3 4 4 4 4 4 5 5 5 6 5 4 6 6 5 6 6 6 6 6 6 6 6 6 6 7 7 7 8 8 7 7 7 7 6 6 7 7 7 7 6
4 4 3 4 4 4 4 4 4 5 5 5 4 4 5 6 6 6 6 6 6 6 6 6 7 6 6 6 7 7 7 7 7 7 7 7 7 6 6 7 8 8 7
4 4 4 4 4 4 4 4 5 5 5 5 5 5 5 6 6 7 7 6 5 6 6 6 7 8 9 7 6 6 6 6 6 7 9 8 7 7 6 7 8 8 8
3 4 4 4 4 4 4 5 5 5 5 5 4 5 5 5 5 6 5 5 6 6 7 7 6 7 10 11 9 7 6 6 6 6 7 7 8 8 7 7 7 7 7
3 3 3 3 4 4 4 4 4 4 4 4 4 5 5 5 5 5 5 5 5 6 7 7 8 9 10 9 10 9 7 7 7 7 7 6 7 7 7 7 8 7 7
Wind_Direction
199 200 203 199 204 204 217 215 234 247 246 246 245 246 236 230 227 218 231 224 231 224 219 226 219 211 215 209 219 235 240 244 232 205 171 172 194 195 167 190 172 193 132
206 209 212 204 217 217 213 218 236 252 258 254 249 244 234 231 232 232 228 224 229 236 234 228 224 202 216 217 219 229 227 230 227 217 202 191 218 175 169 188 186 176 147
208 214 213 212 221 227 221 217 236 240 248 247 239 239 236 232 224 226 225 227 225 232 234 231 228 219 215 210 223 228 226 222 216 219 213 185 216 191 183 185 187 182 183
211 220 218 219 221 223 225 228 242 245 245 245 240 240 239 236 230 227 228 233 233 232 230 231 230 234 231 225 226 227 223 217 207 215 210 199 203 198 208 195 192 192 218
216 221 223 226 219 218 220 232 242 246 249 245 240 237 234 237 240 244 234 236 238 232 225 222 217 227 295 254 249 236 224 225 213 214 215 211 204 201 212 210 214 208 220
220 224 220 224 217 215 219 228 236 246 251 243 243 241 238 233 209 255 261 239 236 234 230 224 210 201 200 213 225 239 243 238 229 223 223 223 219 210 209 222 216 221 225
220 222 218 220 219 220 218 224 230 238 244 244 241 240 243 223 186 215 248 258 241 237 237 231 220 209 208 216 199 206 217 231 245 251 237 231 225 213 213 226 234 245 261
218 218 216 218 219 220 221 225 230 234 238 241 239 238 241 223 190 204 230 241 240 236 233 233 229 217 206 227 218 216 219 213 219 236 248 242 233 217 223 237 239 239 245
218 219 220 220 218 219 224 230 229 228 234 238 234 235 242 230 198 206 230 235 233 234 231 232 235 231 171 213 230 223 220 212 197 240 295 297 207 198 205 207 209 219 233
223 221 221 224 221 223 226 230 229 224 228 232 232 234 238 240 202 206 232 238 234 232 228 226 218 243 183 198 227 227 226 222 213 205 218 202 200 185 197 220 216 230 242
229 224 220 222 224 224 224 226 227 223 226 232 234 234 236 238 204 204 224 241 236 233 227 226 214 194 201 214 243 241 242 251 228 220 220 217 212 205 206 223 228 237 244
227 227 224 222 220 217 217 219 221 218 222 229 232 235 235 228 225 212 218 237 252 240 235 232 215 189 204 216 231 229 199 232 231 224 225 219 219 220 219 225 233 238 254
225 225 226 221 219 217 211 212 214 214 219 224 227 233 233 228 218 212 214 222 235 243 245 246 216 188 200 213 210 199 205 221 228 229 232 230 226 226 220 220 230 237 249
231 228 223 220 215 216 215 215 217 217 220 224 227 232 232 228 222 212 216 216 215 228 236 207 195 197 216 224 199 202 221 226 231 236 239 235 223 221 220 217 224 223 233
235 234 226 221 219 218 216 222 226 227 230 233 232 232 230 231 226 222 223 223 223 223 219 213 211 204 212 215 217 214 218 217 224 235 235 230 223 222 224 222 228 232 239
233 233 231 222 220 220 218 224 236 244 237 241 248 249 241 245 222 213 222 220 210 197 209 220 221 223 222 221 219 219 220 222 224 227 232 231 227 228 227 222 224 230 239
232 233 235 229 222 223 224 226 227 229 228 231 231 235 241 232 217 217 221 214 201 193 215 226 228 229 230 228 225 225 226 227 229 230 231 231 228 228 228 225 225 230 237
237 235 239 234 230 229 230 232 232 230 230 232 224 223 225 221 218 214 207 199 206 210 224 229 231 231 232 232 229 227 228 226 225 229 231 232 230 229 229 229 229 231 235
239 236 238 240 237 236 235 236 235 233 234 235 231 217 217 218 214 210 200 217 221 221 225 229 232 232 232 233 233 231 230 230 228 229 232 233 230 231 233 232 234 234 236
244 245 251 242 236 236 238 240 238 235 233 232 231 227 209 214 221 214 218 228 231 231 231 232 232 232 232 231 230 230 232 231 231 231 233 231 229 229 234 235 235 232 231
249 239 237 244 238 234 236 240 242 240 238 236 236 227 215 223 227 226 227 231 234 236 235 234 235 233 230 229 229 230 232 233 233 234 232 231 230 229 231 234 236 237 235
251 247 238 241 244 241 241 243 245 243 242 243 244 226 214 232 236 234 232 233 237 239 239 237 236 234 230 228 228 230 232 232 231 232 233 232 231 232 233 233 233 234 233
247 244 243 245 248 245 243 244 246 247 247 246 242 237 228 236 242 243 242 238 237 238 238 236 237 235 237 235 231 231 234 234 232 232 231 230 230 230 231 234 234 233 232
247 241 240 240 244 244 244 246 246 248 249 248 245 244 241 241 246 250 251 248 243 242 241 239 238 237 237 239 235 232 237 242 241 235 230 229 227 229 229 233 235 233 232
252 248 245 241 241 244 248 251 252 250 250 250 250 251 251 250 251 255 256 254 252 248 247 245 242 241 240 238 238 237 235 237 242 240 231 227 227 228 230 230 231 233 232
258 257 257 253 250 249 248 250 254 257 256 255 255 256 258 257 256 256 258 256 255 253 251 246 243 243 244 242 241 239 227 222 227 235 232 226 224 225 226 229 230 229 229